• Em Portugal
  • Lista de países
  • Para 7 dias
  • Temperatura da água
  • Mapas de satélite
  • Mapa do tempo
  • Widgets de tempo
  • user-avatar
    Iniciar Sessão

    Previsão horária em Kruszki

    Hoje, 21 Agosto, Terça-feira

    Tempo Temperatura Precipitação Vento Pressão Humidade
    00:00 +17°C° 0 mm 4 m/s 738 mmHg 89%
    01:00 +17°C° 0 mm 4 m/s 738 mmHg 89%
    02:00 +15°C° 0 mm 4 m/s 738 mmHg 89%
    03:00 +14°C° 0 mm 4 m/s 738 mmHg 89%
    04:00 +14°C° 0 mm 4 m/s 738 mmHg 89%
    05:00 +13°C° 0 mm 4 m/s 738 mmHg 89%
    06:00 +14°C° 0 mm 4 m/s 739 mmHg 86%
    07:00 +15°C° 0 mm 5 m/s 739 mmHg 82%
    08:00 +16°C° 0 mm 5 m/s 740 mmHg 79%
    09:00 +17°C° 0,1 mm 5 m/s 740 mmHg 73%
    10:00 +19°C° 0,1 mm 5 m/s 740 mmHg 67%
    11:00 +20°C° 0,1 mm 5 m/s 741 mmHg 62%
    12:00 +20°C° 0,1 mm 5 m/s 741 mmHg 60%
    13:00 +21°C° 0,1 mm 5 m/s 741 mmHg 58%
    14:00 +21°C° 0,1 mm 5 m/s 741 mmHg 56%
    15:00 +21°C° 0,1 mm 5 m/s 742 mmHg 58%
    16:00 +20°C° 0,1 mm 5 m/s 742 mmHg 59%
    17:00 +20°C° 0,1 mm 5 m/s 742 mmHg 61%
    18:00 +18°C° 0 mm 4 m/s 742 mmHg 67%
    19:00 +15°C° 0 mm 4 m/s 742 mmHg 73%
    20:00 +14°C° 0 mm 3 m/s 743 mmHg 78%
    21:00 +13°C° 0 mm 3 m/s 743 mmHg 81%
    22:00 +12°C° 0 mm 3 m/s 744 mmHg 85%
    23:00 +12°C° 0 mm 2 m/s 744 mmHg 88%

    Amanhã, 22 Agosto, Quarta-feira

    Tempo Temperatura Precipitação Vento Pressão Humidade
    00:00 +10°C° 0 mm 2 m/s 744 mmHg 89%
    01:00 +10°C° 0 mm 2 m/s 745 mmHg 90%
    02:00 +9°C° 0 mm 2 m/s 745 mmHg 92%
    03:00 +9°C° 0 mm 2 m/s 745 mmHg 92%
    04:00 +10°C° 0 mm 1 m/s 745 mmHg 93%
    05:00 +9°C° 0 mm 1 m/s 746 mmHg 93%
    06:00 +11°C° 0 mm 1 m/s 746 mmHg 87%
    07:00 +12°C° 0 mm 1 m/s 746 mmHg 81%
    08:00 +14°C° 0 mm 1 m/s 747 mmHg 74%
    09:00 +15°C° 0 mm 2 m/s 747 mmHg 67%
    10:00 +17°C° 0 mm 2 m/s 747 mmHg 60%
    11:00 +18°C° 0 mm 2 m/s 747 mmHg 53%
    12:00 +19°C° 0 mm 2 m/s 747 mmHg 50%
    13:00 +20°C° 0 mm 2 m/s 747 mmHg 47%
    14:00 +21°C° 0 mm 2 m/s 746 mmHg 44%
    15:00 +21°C° 0 mm 2 m/s 746 mmHg 45%
    16:00 +22°C° 0 mm 1 m/s 746 mmHg 46%
    17:00 +22°C° 0 mm 1 m/s 746 mmHg 46%
    18:00 +19°C° 0 mm 2 m/s 745 mmHg 52%
    19:00 +17°C° 0 mm 2 m/s 745 mmHg 58%
    20:00 +15°C° 0 mm 2 m/s 745 mmHg 64%
    21:00 +14°C° 0 mm 2 m/s 745 mmHg 66%
    22:00 +13°C° 0 mm 3 m/s 745 mmHg 68%
    23:00 +12°C° 0 mm 3 m/s 745 mmHg 71%

    Depois de amanhã, 23 Agosto, Quinta-feira

    Tempo Temperatura Precipitação Vento Pressão Humidade
    00:00 +12°C° 0 mm 3 m/s 745 mmHg 71%
    01:00 +12°C° 0 mm 3 m/s 745 mmHg 71%
    02:00 +11°C° 0 mm 3 m/s 745 mmHg 71%
    03:00 +11°C° 0 mm 3 m/s 745 mmHg 72%
    04:00 +11°C° 0 mm 3 m/s 744 mmHg 72%
    05:00 +11°C° 0 mm 4 m/s 744 mmHg 73%
    06:00 +12°C° 0 mm 4 m/s 744 mmHg 71%
    07:00 +13°C° 0 mm 4 m/s 744 mmHg 68%
    08:00 +14°C° 0 mm 4 m/s 744 mmHg 66%
    09:00 +17°C° 0 mm 4 m/s 744 mmHg 62%
    10:00 +19°C° 0 mm 4 m/s 743 mmHg 59%
    11:00 +21°C° 0 mm 4 m/s 743 mmHg 55%
    12:00 +22°C° 0 mm 4 m/s 743 mmHg 54%
    13:00 +23°C° 0 mm 4 m/s 742 mmHg 53%
    14:00 +25°C° 0 mm 4 m/s 742 mmHg 52%
    15:00 +25°C° 0 mm 4 m/s 742 mmHg 53%
    16:00 +25°C° 0 mm 3 m/s 741 mmHg 55%
    17:00 +24°C° 0 mm 3 m/s 741 mmHg 57%
    18:00 +22°C° 0 mm 3 m/s 741 mmHg 62%
    19:00 +20°C° 0 mm 3 m/s 740 mmHg 67%
    20:00 +19°C° 0 mm 3 m/s 740 mmHg 72%
    21:00 +18°C° 0 mm 3 m/s 740 mmHg 74%
    22:00 +18°C° 0 mm 3 m/s 740 mmHg 76%
    23:00 +18°C° 0 mm 4 m/s 740 mmHg 78%

    24 Agosto, Sexta-feira

    Tempo Temperatura Precipitação Vento Pressão Humidade
    00:00 +17°C° 0 mm 4 m/s 739 mmHg 81%
    01:00 +17°C° 0 mm 3 m/s 739 mmHg 84%
    02:00 +16°C° 0 mm 3 m/s 739 mmHg 88%
    03:00 +16°C° 0 mm 3 m/s 739 mmHg 89%
    04:00 +16°C° 0 mm 3 m/s 738 mmHg 91%
    05:00 +16°C° 0 mm 3 m/s 738 mmHg 92%
    06:00 +17°C° 0 mm 4 m/s 738 mmHg 88%
    07:00 +18°C° 0 mm 4 m/s 737 mmHg 84%
    08:00 +19°C° 0 mm 4 m/s 737 mmHg 80%
    09:00 +21°C° 0 mm 4 m/s 737 mmHg 74%
    10:00 +23°C° 0 mm 4 m/s 737 mmHg 68%
    11:00 +25°C° 0 mm 4 m/s 737 mmHg 62%
    12:00 +26°C° 0,2 mm 4 m/s 736 mmHg 61%
    13:00 +27°C° 0,2 mm 4 m/s 736 mmHg 60%
    14:00 +27°C° 0,2 mm 4 m/s 735 mmHg 59%
    15:00 +26°C° 1,6 mm 4 m/s 735 mmHg 64%
    16:00 +26°C° 1,6 mm 4 m/s 734 mmHg 69%
    17:00 +25°C° 1,6 mm 3 m/s 734 mmHg 75%
    18:00 +22°C° 1,8 mm 3 m/s 734 mmHg 79%
    19:00 +21°C° 1,8 mm 3 m/s 734 mmHg 83%
    20:00 +20°C° 1,8 mm 2 m/s 734 mmHg 88%
    21:00 +19°C° 1,2 mm 2 m/s 734 mmHg 91%
    22:00 +19°C° 1,2 mm 2 m/s 734 mmHg 94%
    23:00 +18°C° 1,2 mm 2 m/s 734 mmHg 96%

    25 Agosto, Sábado

    Tempo Temperatura Precipitação Vento Pressão Humidade
    00:00 +17°C° 0,5 mm 3 m/s 734 mmHg 96%
    01:00 +17°C° 0,5 mm 3 m/s 735 mmHg 96%
    02:00 +15°C° 0,5 mm 4 m/s 735 mmHg 95%
    03:00 +15°C° 0,1 mm 4 m/s 735 mmHg 95%
    04:00 +14°C° 0,1 mm 3 m/s 735 mmHg 95%
    05:00 +13°C° 0,1 mm 3 m/s 736 mmHg 95%
    06:00 +14°C° 0 mm 3 m/s 736 mmHg 92%
    07:00 +14°C° 0 mm 3 m/s 736 mmHg 89%
    08:00 +14°C° 0 mm 3 m/s 737 mmHg 86%
    09:00 +16°C° 0 mm 3 m/s 737 mmHg 83%
    10:00 +16°C° 0 mm 3 m/s 737 mmHg 79%
    11:00 +16°C° 0 mm 3 m/s 738 mmHg 76%
    12:00 +17°C° 0 mm 3 m/s 738 mmHg 70%
    13:00 +18°C° 0 mm 3 m/s 738 mmHg 63%
    14:00 +19°C° 0 mm 3 m/s 738 mmHg 57%
    15:00 +19°C° 0 mm 3 m/s 738 mmHg 56%
    16:00 +19°C° 0 mm 2 m/s 738 mmHg 56%
    17:00 +19°C° 0 mm 2 m/s 738 mmHg 56%
    18:00 +17°C° 0 mm 2 m/s 738 mmHg 61%
    19:00 +16°C° 0 mm 1 m/s 738 mmHg 65%
    20:00 +13°C° 0 mm 0 m/s 738 mmHg 70%
    21:00 +14°C° 0 mm 1 m/s 738 mmHg 70%
    22:00 +14°C° 0 mm 1 m/s 738 mmHg 70%
    23:00 +13°C° 0 mm 1 m/s 738 mmHg 71%

    26 Agosto, Domingo

    Tempo Temperatura Precipitação Vento Pressão Humidade
    00:00 +13°C° 0 mm 1 m/s 739 mmHg 71%
    01:00 +13°C° 0 mm 1 m/s 739 mmHg 72%
    02:00 +13°C° 0 mm 2 m/s 739 mmHg 72%
    03:00 +13°C° 0 mm 2 m/s 738 mmHg 74%
    04:00 +13°C° 0 mm 2 m/s 738 mmHg 76%
    05:00 +12°C° 0 mm 2 m/s 738 mmHg 78%
    06:00 +13°C° 0,2 mm 2 m/s 738 mmHg 80%
    07:00 +13°C° 0,2 mm 2 m/s 738 mmHg 83%
    08:00 +14°C° 0,2 mm 2 m/s 738 mmHg 85%
    09:00 +13°C° 0,3 mm 3 m/s 738 mmHg 86%
    10:00 +13°C° 0,3 mm 3 m/s 737 mmHg 87%
    11:00 +13°C° 0,3 mm 3 m/s 737 mmHg 88%
    12:00 +13°C° 0,9 mm 4 m/s 736 mmHg 90%
    13:00 +13°C° 0,9 mm 4 m/s 736 mmHg 91%
    14:00 +12°C° 0,9 mm 5 m/s 735 mmHg 92%
    15:00 +13°C° 0,7 mm 5 m/s 735 mmHg 92%
    16:00 +13°C° 0,7 mm 5 m/s 734 mmHg 93%
    17:00 +13°C° 0,7 mm 5 m/s 734 mmHg 93%
    18:00 +13°C° 1,4 mm 4 m/s 733 mmHg 94%
    19:00 +13°C° 1,4 mm 4 m/s 733 mmHg 96%
    20:00 +13°C° 1,4 mm 4 m/s 733 mmHg 97%
    21:00 +13°C° 0,7 mm 3 m/s 733 mmHg 97%
    22:00 +13°C° 0,7 mm 3 m/s 732 mmHg 97%
    23:00 +14°C° 0,7 mm 2 m/s 732 mmHg 97%
    Mostrar mais